GFSFLT1_925_thetae_132.txt.gz
Theta_e
349 349 347 345 346 347 349 349 349 349 348 350 350 349 350 351 351 348 347 349 348 348 347 348 350 353 352 353 353 350 354 353 351
348 348 348 345 346 347 349 349 349 349 348 349 349 348 349 352 352 350 349 350 351 349 351 350 352 352 352 353 354 352 352 350 353
348 349 347 347 346 347 348 349 349 350 349 349 348 347 349 350 351 351 351 350 349 348 351 351 352 352 352 352 353 354 353 351 354
348 348 348 348 347 347 348 349 349 350 350 349 348 349 349 349 350 350 352 352 352 351 350 351 351 351 351 352 353 354 354 353 351
348 347 347 348 348 348 348 349 349 350 350 350 349 348 349 350 349 350 350 352 352 353 353 349 351 351 350 351 352 353 354 353 352
346 348 347 347 347 347 348 350 350 351 351 351 350 350 349 349 349 351 351 350 352 352 354 353 353 352 353 352 352 352 353 353 353
348 347 349 347 348 345 348 348 351 351 352 352 352 351 350 350 351 350 351 350 351 352 354 353 354 354 354 355 353 354 354 354 354
350 350 350 349 351 348 347 347 349 351 352 353 353 353 352 352 352 352 352 351 351 353 353 354 355 354 354 353 353 352 353 354 354
351 352 351 348 346 345 345 345 342 347 351 352 351 353 353 353 354 355 354 354 353 354 354 354 355 354 353 353 352 351 350 350 352
339 341 349 348 346 344 344 343 342 342 345 348 349 351 351 349 353 352 352 353 353 354 354 353 353 353 353 352 353 352 349 348 350
334 333 334 335 343 345 345 344 341 340 340 344 349 349 351 350 351 353 353 352 350 348 352 352 352 352 353 353 353 353 350 348 348
333 331 330 330 332 335 338 339 339 343 343 343 348 347 351 350 349 350 352 352 354 352 352 352 352 351 351 350 350 346 343 344 345
334 333 331 331 333 333 333 333 339 344 345 345 345 348 348 347 346 346 346 349 350 349 349 348 343 341 340 340 343 340 340 341 344
333 333 334 333 332 329 329 333 339 342 345 346 345 345 345 345 346 345 345 345 344 344 343 342 341 339 338 337 335 334 339 340 339
333 332 332 332 332 330 328 333 339 341 341 341 343 345 345 345 343 342 343 340 334 328 331 332 330 329 330 332 332 333 336 338 335
332 332 331 331 330 330 325 329 336 335 334 336 337 338 336 335 334 335 334 333 330 328 327 326 322 324 326 324 325 329 330 329 330
331 331 331 330 329 329 325 324 326 329 330 333 332 331 329 329 332 332 329 327 325 325 324 321 319 320 321 321 322 322 321 324 325
330 329 329 327 326 327 324 322 322 324 328 331 329 326 324 325 326 328 326 324 322 321 319 318 317 316 316 320 323 319 320 322 321
330 330 329 328 325 325 324 321 323 322 324 327 327 324 322 322 322 321 320 320 317 318 316 317 317 313 310 312 313 316 318 318 318
325 327 327 328 328 327 323 325 324 323 323 322 321 321 319 318 318 318 318 316 314 310 311 313 311 311 314 312 314 314 315 315 315

GFSFLT1_925_thetae_135.txt.gz
Theta_e
349 350 347 345 344 350 349 348 347 348 350 351 351 351 350 351 351 351 349 351 350 346 348 345 352 355 351 352 354 353 353 354 352
350 351 349 347 345 345 347 347 348 348 350 350 349 350 351 351 352 351 349 349 351 350 348 350 352 352 352 352 353 354 353 352 351
350 351 350 346 346 345 346 349 349 349 350 351 349 349 350 351 353 353 353 353 353 352 350 350 353 352 354 354 353 354 354 351 350
350 349 349 347 348 345 346 348 349 350 350 350 350 349 348 349 349 351 352 352 352 352 353 353 352 353 354 353 353 354 354 353 353
350 350 348 348 345 348 348 349 350 350 350 350 350 349 348 349 349 350 350 354 352 352 353 353 353 354 354 354 353 353 355 355 351
351 350 349 348 348 351 350 349 351 351 351 351 351 349 350 349 349 350 350 351 352 354 353 355 352 354 355 354 354 354 354 355 355
350 352 350 347 346 351 350 351 353 353 352 352 352 351 349 349 351 350 349 350 351 353 354 355 355 354 355 355 355 354 354 355 355
352 350 351 347 346 347 348 351 351 354 354 354 354 353 352 351 352 352 352 352 352 352 353 354 355 355 355 354 354 354 354 355 355
350 352 350 346 349 350 349 349 348 350 354 354 356 354 354 355 354 354 354 353 353 353 354 354 355 354 354 354 354 351 351 352 354
342 342 347 344 347 347 347 346 346 345 346 349 351 352 353 354 354 355 355 356 354 354 355 354 352 353 354 354 354 352 350 350 350
342 339 335 339 338 343 343 344 343 344 344 343 345 350 351 352 352 354 354 355 354 353 352 354 351 354 353 351 352 353 352 351 350
339 339 336 333 333 336 339 341 343 341 341 341 341 346 349 350 352 350 351 353 354 354 352 352 353 347 351 352 352 352 352 349 347
338 337 337 336 337 337 337 339 340 341 341 345 343 345 347 347 349 350 350 349 350 352 352 353 351 351 350 349 348 347 345 342 343
336 336 336 337 337 337 336 335 337 341 346 343 342 341 338 343 343 344 343 344 346 348 347 349 346 343 341 341 340 340 339 339 340
336 335 335 335 335 334 333 331 336 341 341 344 342 339 341 342 342 343 344 343 342 340 339 336 330 333 330 331 334 336 337 339 339
334 334 334 334 334 333 327 326 331 335 336 338 339 340 339 338 339 338 335 333 330 327 327 326 325 326 325 325 324 327 331 334 336
333 333 333 333 332 329 325 324 326 328 331 334 335 335 335 335 334 331 327 326 325 325 324 324 324 324 324 324 323 324 322 324 327
333 332 332 332 331 327 323 324 324 325 327 330 329 328 330 331 329 327 321 324 320 321 323 324 323 322 322 325 324 319 321 322 320
332 331 331 331 331 330 326 324 325 325 326 326 326 324 323 324 323 322 318 316 315 316 317 318 318 314 314 316 319 318 320 320 320
329 331 331 330 330 329 328 327 325 325 325 325 326 323 321 321 320 319 318 316 317 315 314 315 315 315 312 315 317 317 316 317 318

GFSFLT1_925_thetae_138.txt.gz
Theta_e
346 346 346 347 347 349 349 347 347 350 355 352 350 353 352 352 350 351 346 350 347 347 346 348 351 349 352 350 354 354 352 353 355
348 347 347 349 348 350 349 347 349 351 355 355 353 351 351 350 352 352 350 350 348 349 351 351 353 352 352 352 349 353 353 353 351
352 352 349 348 347 348 348 348 347 353 353 354 353 352 350 350 351 351 352 349 350 350 352 351 349 351 353 349 352 352 353 351 352
352 349 350 351 346 345 348 349 349 353 354 353 353 351 353 352 353 352 349 350 352 340 352 353 354 351 347 353 353 353 353 352 352
351 349 351 352 348 346 347 352 351 350 353 354 352 351 352 352 353 353 353 351 352 352 353 351 354 352 352 352 354 351 353 354 353
353 352 352 351 352 350 350 353 352 353 351 353 352 351 351 351 350 353 353 353 351 352 351 351 353 354 354 353 354 353 353 353 353
353 352 351 351 350 348 346 342 343 355 354 354 352 351 352 350 352 350 351 351 352 353 353 350 351 353 355 355 355 353 353 354 353
353 354 351 350 347 345 344 342 339 348 349 352 352 350 351 352 351 351 352 352 353 353 354 352 353 352 352 353 353 353 354 353 354
354 352 352 348 348 346 345 343 344 344 348 339 354 356 351 350 352 352 352 354 353 352 352 353 353 353 354 353 351 353 352 354 351
347 345 349 348 350 348 346 343 343 345 349 350 350 354 352 355 353 354 353 353 352 352 351 352 353 353 351 352 354 354 353 351 352
346 344 343 341 341 344 344 345 344 345 347 348 348 351 353 354 356 355 355 354 352 352 351 354 353 349 348 349 351 351 351 352 351
342 342 342 340 338 338 340 341 344 344 342 342 342 345 347 350 354 353 353 353 353 353 353 355 355 354 350 350 350 351 350 351 352
339 339 339 340 339 339 339 341 341 342 343 343 343 343 343 346 347 349 350 350 348 348 349 351 354 353 352 350 349 350 349 346 347
338 338 338 338 338 337 335 335 337 339 342 347 346 343 343 342 343 346 343 342 343 345 345 346 348 346 343 342 341 343 344 342 340
337 336 335 335 336 334 332 330 334 339 340 343 346 343 339 338 341 341 341 340 339 341 340 339 339 337 336 335 334 335 336 339 340
337 335 334 334 334 333 327 327 331 333 336 339 342 342 339 339 338 339 339 338 334 335 333 331 328 327 326 326 327 328 327 328 336
336 334 334 332 333 330 326 325 327 330 334 336 337 336 337 336 334 332 331 330 329 329 328 327 327 326 325 324 323 323 323 324 326
335 333 332 332 331 330 327 325 326 329 332 334 333 333 332 331 329 327 326 326 324 324 325 325 326 325 325 326 322 323 323 323 323
333 333 332 333 331 330 329 328 326 327 329 330 329 327 327 325 325 322 320 320 319 320 320 320 320 318 320 319 319 320 322 321 322
332 333 333 333 332 331 330 330 329 326 327 327 327 325 323 323 322 321 319 319 317 314 315 315 314 314 315 317 319 318 319 319 319

GFSFLT1_925_thetae_141.txt.gz
Theta_e
345 342 344 348 345 343 344 351 354 353 349 346 349 348 345 349 348 348 348 349 344 347 349 349 348 347 352 351 352 352 350 353 352
351 345 342 346 343 343 343 347 353 354 350 348 346 348 348 349 351 349 346 349 351 350 348 350 347 351 350 351 350 353 352 349 350
344 343 342 346 344 344 347 346 354 354 350 349 347 347 351 351 351 350 348 348 351 348 351 350 352 349 350 351 351 350 352 351 350
345 343 343 344 345 346 348 348 350 354 354 351 348 347 350 351 349 349 350 351 348 348 349 352 351 351 350 350 351 352 351 353 351
351 353 349 347 346 348 347 348 349 354 354 354 352 351 349 349 346 348 348 349 348 349 343 349 353 352 350 346 350 351 351 353 351
341 354 351 350 349 348 344 349 348 349 353 353 353 352 353 351 349 350 351 348 345 349 350 350 351 353 349 350 351 352 353 354 353
349 350 350 348 345 343 341 340 345 344 346 351 351 352 351 352 353 351 350 351 350 350 349 349 350 349 353 354 353 352 352 352 352
352 352 347 347 344 342 344 343 344 344 342 341 344 347 349 352 352 351 353 353 353 351 351 351 351 349 351 354 354 353 352 353 353
349 348 348 347 345 343 342 341 341 340 342 341 340 340 340 348 350 350 349 351 351 353 352 351 352 351 352 351 351 352 351 352 353
347 344 344 344 345 347 344 343 342 341 342 340 340 339 339 337 352 351 351 351 352 352 352 353 353 352 352 352 354 354 353 353 351
344 344 341 339 338 341 343 344 341 341 344 345 345 341 338 338 345 351 350 349 351 351 350 350 350 351 351 351 350 350 351 351 351
341 340 340 339 338 339 341 342 343 344 343 342 343 344 344 347 347 345 349 349 350 350 350 350 350 349 349 349 349 350 349 350 349
338 338 339 339 340 338 338 338 339 339 341 343 343 341 342 344 345 348 349 350 350 349 348 348 350 350 351 351 350 349 349 348 348
338 338 337 336 336 334 333 333 335 338 341 343 347 346 342 342 343 344 344 341 340 342 343 343 344 344 343 343 342 342 342 344 343
336 335 335 335 333 332 330 331 334 338 338 341 345 343 341 342 341 341 338 336 338 339 339 338 338 338 336 335 335 336 337 338 339
335 334 333 332 333 329 328 329 331 333 336 339 343 341 339 339 338 338 338 336 336 333 331 332 331 330 329 328 328 330 329 331 336
333 334 333 331 331 329 327 327 329 331 335 337 339 339 337 335 334 335 333 331 329 329 328 328 327 327 325 324 324 324 326 328 329
332 331 332 331 330 329 327 327 327 330 334 336 335 333 332 330 329 329 327 327 325 323 323 325 326 326 326 325 322 323 322 323 325
332 331 331 331 330 330 328 327 327 329 331 332 332 330 329 327 324 323 323 322 319 320 322 322 322 321 324 325 321 323 322 321 321
332 332 331 332 330 330 330 329 328 328 329 329 329 328 326 325 323 322 321 320 319 318 315 317 317 318 319 320 321 320 320 320 320

GFSFLT1_925_thetae_144.txt.gz
Theta_e
342 341 345 343 341 343 348 351 351 350 349 348 346 345 347 349 349 349 348 347 345 348 348 347 346 350 351 350 351 348 348 352 351
344 343 344 344 344 344 345 350 350 350 349 345 344 345 347 347 348 348 347 348 348 347 348 347 348 347 346 351 350 351 350 348 346
344 343 343 341 343 343 343 349 350 351 349 345 344 348 346 344 348 347 347 347 349 350 349 350 350 346 348 348 350 349 352 352 349
340 343 345 340 343 344 342 344 350 352 351 347 346 347 347 344 346 349 347 347 346 350 349 350 349 350 351 349 349 350 352 351 352
339 340 346 343 343 343 345 346 350 352 351 349 348 347 348 348 347 349 348 345 350 348 349 350 351 350 350 350 351 351 352 352 351
342 344 345 346 343 341 345 348 351 351 351 351 350 349 348 351 351 350 348 346 347 349 346 349 352 351 351 350 350 349 350 351 350
347 346 346 346 345 342 343 345 343 345 346 347 348 348 349 349 350 348 346 347 348 347 347 349 347 351 350 350 348 350 350 352 353
349 349 348 345 343 341 342 343 344 343 343 340 340 341 343 349 349 349 348 349 349 348 346 348 349 349 350 350 352 352 352 351 352
347 350 347 345 342 342 342 343 344 342 343 342 339 341 341 342 342 347 350 349 349 350 351 350 349 350 351 349 352 353 353 352 352
344 342 343 343 345 342 342 342 340 339 339 342 342 339 339 340 336 341 347 349 349 350 349 350 350 351 351 350 351 350 351 351 351
343 341 338 339 340 341 342 343 343 343 342 341 340 340 339 338 338 340 343 349 350 349 348 350 350 349 351 351 352 351 351 351 352
339 338 336 337 338 339 340 340 340 341 342 343 343 343 341 339 337 336 336 342 348 348 349 349 350 351 352 351 350 350 349 350 349
336 336 338 337 336 335 335 334 336 338 340 341 342 341 341 344 343 342 338 336 346 347 348 349 350 349 349 349 350 349 349 348 348
335 335 335 334 333 331 331 332 334 337 340 341 343 346 344 343 342 344 344 345 346 345 345 345 344 344 343 343 344 343 345 345 344
332 332 334 333 331 329 330 331 335 337 338 340 344 343 342 342 342 341 339 337 337 336 338 339 338 337 336 336 337 338 340 340 340
331 331 331 332 330 328 328 329 331 334 336 338 341 340 341 340 338 337 336 335 335 335 332 331 331 331 328 326 327 328 329 331 334
330 330 330 330 330 328 327 328 329 331 335 336 339 337 336 335 334 333 331 332 331 331 330 328 327 326 324 324 323 325 326 328 330
330 330 330 329 329 329 328 327 328 331 333 335 335 333 332 330 329 328 327 326 324 326 327 327 328 327 325 324 323 324 325 326 326
329 330 330 329 330 329 328 328 328 330 332 333 333 330 328 327 327 326 324 321 318 319 323 323 323 324 325 321 323 323 323 324 323
329 329 330 329 329 329 329 328 328 328 330 331 330 328 326 325 324 323 322 320 320 316 314 317 318 319 320 320 322 322 321 322 321

GFSFLT1_925_thetae_147.txt.gz
Theta_e
343 342 345 346 344 344 345 344 346 346 345 344 345 345 344 343 344 344 346 345 344 344 347 346 347 346 348 350 349 348 348 348 348
345 343 343 345 344 342 346 346 347 347 346 345 345 345 344 344 344 344 346 347 347 346 345 346 347 345 348 349 350 350 348 347 350
343 343 344 343 342 342 343 348 348 348 347 345 345 345 345 346 345 347 348 347 347 346 346 346 347 347 348 346 349 349 350 350 348
336 340 339 343 341 343 342 346 349 349 349 348 347 346 345 345 347 348 347 346 346 347 347 347 347 348 348 347 346 348 349 350 350
340 340 341 346 341 343 343 344 348 349 349 348 346 343 342 345 347 346 348 346 346 347 348 347 346 348 348 348 348 348 349 350 350
340 343 344 344 342 343 346 344 346 350 350 349 346 344 344 347 347 346 346 348 346 347 348 348 348 348 348 348 348 349 348 348 350
343 344 347 345 343 342 344 344 347 349 350 349 348 347 346 346 347 347 346 348 348 345 349 348 348 349 349 349 349 349 349 349 350
345 343 343 345 344 343 344 343 344 343 344 344 345 347 347 348 348 349 349 349 349 348 347 348 347 347 347 350 349 349 349 349 350
346 346 346 345 343 342 342 344 343 344 344 342 340 341 342 345 346 347 348 348 348 346 347 347 347 347 348 349 350 349 349 351 352
344 344 347 344 342 340 341 342 343 343 344 344 343 340 340 340 337 338 342 346 348 348 348 348 348 348 348 349 349 349 349 349 350
342 341 341 341 340 341 341 341 340 341 341 340 341 340 340 339 338 338 338 341 346 348 347 347 348 348 349 349 348 350 350 350 351
338 336 336 337 338 339 340 339 340 341 341 342 340 340 340 339 340 339 336 337 342 346 347 348 349 347 347 348 349 350 350 350 351
336 336 336 335 334 334 333 334 335 337 339 340 341 342 341 340 339 337 337 340 337 342 345 347 347 347 348 349 349 349 350 350 349
335 334 333 332 331 330 330 331 333 336 339 339 341 344 344 341 342 342 342 343 342 342 343 344 344 344 344 344 343 340 340 342 344
332 331 331 330 328 328 329 331 335 336 337 337 341 342 342 340 340 340 339 340 338 339 339 338 334 329 333 334 331 334 337 338 339
329 330 330 328 328 329 328 329 331 333 334 336 340 341 338 337 336 335 335 335 335 335 335 334 332 330 328 325 327 328 329 332 334
327 328 328 328 328 328 327 329 330 332 334 336 339 338 336 334 334 333 332 332 332 331 330 329 328 326 326 324 326 328 328 329 332
328 328 328 328 328 328 328 328 329 331 334 336 336 334 331 328 329 329 328 328 326 328 327 327 328 326 325 325 325 324 327 327 328
328 328 328 328 328 328 328 328 329 331 333 333 333 330 328 327 325 324 322 322 319 322 322 325 326 325 325 324 325 325 326 326 325
328 328 327 327 328 328 327 328 328 329 331 331 330 328 325 325 325 324 321 320 321 320 318 318 320 321 321 322 323 322 323 322 321